Simultaneous Nadir Overpasses (SNOs) Predictions

Prediction of SNOs near equator between AQUA and NPP Satellite Orbit:

Table of predicted SNOs near equator for the next 14.0 days since TLE Epoch: 12/28/2018
Index Date (AQUA) Time (AQUA) AQUA Lat,Lon Date (NPP) Time (NPP) NPP Lat,Lon Distance(km) Time Diff (sec)
1 12/29/2018 07:52:41 -5.64, -95.09 12/29/2018 07:42:51 -5.60, -95.32 25.95 590
2 12/29/2018 08:40:56 1.06, 73.51 12/29/2018 08:32:21 0.94, 73.02 56.19 515
3 12/29/2018 09:29:04 3.43,-117.88 12/29/2018 09:21:44 3.62,-118.63 86.10 440
4 01/01/2019 00:08:47 -4.21, 21.09 12/31/2018 23:59:21 -4.15, 20.77 36.13 566
5 01/01/2019 00:57:02 -0.37,-170.31 01/01/2019 00:48:51 -0.51,-170.89 66.33 491
6 01/01/2019 01:45:09 4.92, -1.68 01/01/2019 01:38:14 5.07, -2.54 96.04 415
7 01/03/2019 15:43:01 29.95, -36.60 01/03/2019 15:33:01 30.33, -37.13 65.73 600
8 01/03/2019 16:24:52 -2.73, 137.29 01/03/2019 16:15:50 -2.64, 136.88 46.30 542
9 01/03/2019 17:13:07 -1.85, -54.12 01/03/2019 17:05:20 -2.01, -54.78 76.38 467
10 01/06/2019 07:52:50 5.80, 84.86 01/06/2019 07:42:57 5.77, 84.62 26.31 593
11 01/06/2019 08:40:58 -1.32,-106.53 01/06/2019 08:32:20 -1.20,-107.03 56.58 518
12 01/06/2019 09:29:13 -3.27, 62.07 01/06/2019 09:21:50 -3.46, 61.31 86.47 443
13 01/09/2019 00:08:54 4.33,-158.95 01/08/2019 23:59:25 4.27,-159.27 36.41 569
14 01/09/2019 00:57:02 0.15, 9.66 01/09/2019 00:48:48 0.30, 9.08 66.79 494
15 01/09/2019 01:45:16 -4.80, 178.27 01/09/2019 01:38:18 -4.95, 177.42 96.38 418




NCC Satellite Simultaneous Nadir Overpasses (SNOs) Prediction Service
